"Pseudo-MPEC" for ZNB9551

Created 2018 Jul 15 18:18:32 UT using Find_Orb

Click here for an explanation of pseudo-MPECs

 
 Astrometry: 
     ZNB9551  C2018 05 25LKAstrometryp\cqj'Z6F]q@dCY(bf,g\5I2yMYVh+[_Ay01jL'MF51
     ZNB9551  C2018 05 25FEpM3FYT(IW:H*sXsX92lverfAyHoEm?%uR%.`-WGYHt7uS+--w)F51
     ZNB9551  C2018 05 25rpJ:ILcH?((n[-#u;redacted;Z9nk+7x6y+4\#^`qa2Z/,c7xy#F51
     ZNB9551  C2018 07 07.20326 14 11 19.29 +22 45 30.2          21.7 GUNEOCPG96
     ZNB9551  C2018 07 07.20855 14 11 19.65 +22 45 19.4          21.0 GUNEOCPG96
     ZNB9551  C2018 07 07.21385 14 11 20.02 +22 45 07.6          21.3 GUNEOCPG96
     ZNB9551  C2018 07 07.21914 14 11 20.41 +22 44 55.9          21.4 GUNEOCPG96
     ZNB9551  C2018 07 07.27245 14 11 24.06 +22 43 03.3          20.8 GUNEOCPI52
     ZNB9551  C2018 07 07.27593 14 11 24.42 +22 42 54.8          20.8 GUNEOCPI52
     ZNB9551  C2018 07 07.27941 14 11 24.58 +22 42 48.3          21.0 GUNEOCPI52
     ZNB9551  C2018 07 07.28414 14 11 25.02 +22 42 37.5          20.7 GUNEOCPI52
     ZNB9551 KC2018 07 08sn8g0`)UktS\M^pd.J3o7HXCeJCcI!6=seemW'S:]xi6ZO*Zk8+XH21
     ZNB9551 KC2018 07 08aB@?kjb.m=ydd0kqK(p:s*05kmMPKiL,/kQS-`%9dCI/;Nleh?oSH21
     ZNB9551 KC2018 07 08A*x42(9!.ydyQq`kq?^[c-D$\6i$U81vwcd/kXdyW(R.ymSNEOCPH21
     ZNB9551  C2018 07 10.21893 14 15 05.82 +20 57 28.8          20.7 GUNEOCPI52
     ZNB9551  C2018 07 10.22356 14 15 06.13 +20 57 18.3          21.1 GUNEOCPI52
     ZNB9551  C2018 07 10.22818 14 15 06.50 +20 57 08.2          21.6 GUNEOCPI52

Station data:
(F51) Pan-STARRS 1, Haleakala  (N20.707235 W156.255910)  US/Hawaii.
   Observers N. Primak, A. Schultz, S. Watters, J. Thiel, T. Goggia. Measurer
   PS1 Science Consortium. 1.8-m Ritchey-Chrétien + CCD.
(G96) Mt. Lemmon Survey  (N32.442754 W110.788720)  US/Arizona.  Observers B.
   M. Africano, E. J. Christensen, D. C. Fuls, A. R. Gibbs, A. D. Grauer, J.
   A. Johnson, R. A. Kowalski, S. M. Larson, G. J. Leonard, R. L. Seaman, F.
   C. Shelly. 1.5-m reflector + 10K CCD.
(H21) Astronomical Research Observatory, Westfield  (N39.483057 W87.968270)
   US/Illinois. 0.76-m f/3.0 astrograph + CCD.
(I52) Steward Observatory, Mt. Lemmon Station  (N32.442547 W110.788920)
   US/Arizona.  Observers B. M. Africano, E. J. Christensen, D. C. Fuls, A.
   R. Gibbs, A. D. Grauer, J. A. Johnson, R. A. Kowalski, S. M. Larson, G. J.
   Leonard, R. L. Seaman, F. C. Shelly. 1.0-m reflector + CCD.

Orbital elements:  ZNB9551
   Perihelion 2018 Aug 18.443480 +/- 0.0184 TT = 10:38:36 (JD 2458348.943480)
Epoch 2018 Jul 10.0 TT = JDT 2458309.5   Earth MOID: 0.4042   Ju: 0.4430
M 353.38022 +/- 0.026               Ma: 0.0430                AutoNEOCP
n   0.16782939 +/- 0.0006           Peri.  158.31149 +/- 0.010
a   3.25504768 +/- 0.00775          Node   117.68026 +/- 0.022
e   0.5702500 +/- 0.000913          Incl.   27.56278 +/- 0.011
P   5.87                   H 19.0   G  0.15   U  7.8  
q 1.39885660 +/- 0.000372    Q 5.11123876 +/- 0.0151
From 17 observations 2018 May 25-July 10; mean residual 0".39
Residuals in arcseconds: 
180525 F51  .03-  .16-    180707 G96  .05+  .56-    180708 H21  .48+  .03+    
180525 F51  .04-  .09+    180707 I52  1.1-  .51+    180708 H21  .41+  .34+    
180525 F51  .07+  .07+    180707 I52  .52+  .56-    180710 I52  .14+  .18+    
180707 G96  .21-  .06-    180707 I52  .66-  .37+    180710 I52  .42-  .17-    
180707 G96  .30-  .40+    180707 I52  .80+  .33-    180710 I52  .14-  .14-    
180707 G96  .27-  .12-    180708 H21  .51+  .04+    

Ephemerides (geocentric):
Date (UTC) HH   RA              Dec         delta   r     elong  mag " sig PA
---- -- -- --  -------------   -----------  ------ ------ -----  --- ---- ---
2018 07 15 18  14 22 47.892   +17 31 38.42  .97205 1.4465  93.3 21.4  1.1  79
2018 07 15 19  14 22 51.592   +17 30 03.28  .97206 1.4464  93.3 21.4  1.1  79
2018 07 15 20  14 22 55.295   +17 28 28.10  .97208 1.4463  93.3 21.4  1.1  79
2018 07 15 21  14 22 59.001   +17 26 52.89  .97209 1.4462  93.3 21.4  1.1  79
2018 07 15 22  14 23 02.711   +17 25 17.66  .97211 1.4461  93.3 21.4  1.1  79
2018 07 15 23  14 23 06.424   +17 23 42.40  .97212 1.4459  93.3 21.4  1.1  79
2018 07 16 00  14 23 10.140   +17 22 07.11  .97214 1.4458  93.3 21.4  1.1  79
2018 07 16 01  14 23 13.859   +17 20 31.78  .97215 1.4457  93.2 21.4  1.1  79
2018 07 16 02  14 23 17.582   +17 18 56.44  .97217 1.4456  93.2 21.4  1.1  79
2018 07 16 03  14 23 21.307   +17 17 21.06  .97218 1.4455  93.2 21.4  1.1  79
2018 07 16 04  14 23 25.036   +17 15 45.65  .97220 1.4454  93.2 21.4  1.1  79
2018 07 16 05  14 23 28.769   +17 14 10.21  .97221 1.4453  93.2 21.4  1.1  79
2018 07 16 06  14 23 32.504   +17 12 34.75  .97223 1.4452  93.2 21.4  1.1  79
2018 07 16 07  14 23 36.243   +17 10 59.25  .97224 1.4450  93.2 21.4  1.2  79
2018 07 16 08  14 23 39.985   +17 09 23.73  .97226 1.4449  93.2 21.4  1.2  79
2018 07 16 09  14 23 43.730   +17 07 48.18  .97228 1.4448  93.2 21.4  1.2  79
2018 07 16 10  14 23 47.478   +17 06 12.60  .97229 1.4447  93.2 21.4  1.2  79
2018 07 16 11  14 23 51.230   +17 04 36.99  .97231 1.4446  93.1 21.4  1.2  79
2018 07 16 12  14 23 54.985   +17 03 01.36  .97233 1.4445  93.1 21.4  1.2  79
2018 07 16 13  14 23 58.743   +17 01 25.69  .97234 1.4444  93.1 21.4  1.2  79
2018 07 16 14  14 24 02.504   +16 59 50.00  .97236 1.4442  93.1 21.4  1.2  79
2018 07 16 15  14 24 06.269   +16 58 14.28  .97238 1.4441  93.1 21.4  1.2  78
2018 07 16 16  14 24 10.037   +16 56 38.53  .97239 1.4440  93.1 21.4  1.2  78
2018 07 16 17  14 24 13.808   +16 55 02.75  .97241 1.4439  93.1 21.4  1.2  78
2018 07 16 18  14 24 17.582   +16 53 26.95  .97243 1.4438  93.1 21.4  1.2  78
2018 07 16 19  14 24 21.360   +16 51 51.11  .97245 1.4437  93.1 21.4  1.2  78
2018 07 16 20  14 24 25.140   +16 50 15.25  .97246 1.4436  93.0 21.4  1.2  78
2018 07 16 21  14 24 28.924   +16 48 39.36  .97248 1.4435  93.0 21.4  1.2  78
2018 07 16 22  14 24 32.711   +16 47 03.44  .97250 1.4434  93.0 21.4  1.3  78
2018 07 16 23  14 24 36.502   +16 45 27.50  .97252 1.4432  93.0 21.4  1.3  78
2018 07 17 00  14 24 40.295   +16 43 51.52  .97254 1.4431  93.0 21.4  1.3  78
2018 07 17 01  14 24 44.092   +16 42 15.52  .97255 1.4430  93.0 21.4  1.3  78
2018 07 17 02  14 24 47.892   +16 40 39.49  .97257 1.4429  93.0 21.4  1.3  78
2018 07 17 03  14 24 51.695   +16 39 03.44  .97259 1.4428  93.0 21.4  1.3  78
2018 07 17 04  14 24 55.501   +16 37 27.35  .97261 1.4427  93.0 21.4  1.3  78
2018 07 17 05  14 24 59.311   +16 35 51.24  .97263 1.4426  93.0 21.4  1.3  78
2018 07 17 06  14 25 03.124   +16 34 15.10  .97265 1.4425  92.9 21.4  1.3  78
2018 07 17 07  14 25 06.940   +16 32 38.93  .97267 1.4424  92.9 21.4  1.3  78
2018 07 17 08  14 25 10.759   +16 31 02.74  .97268 1.4422  92.9 21.4  1.3  78
2018 07 17 09  14 25 14.581   +16 29 26.52  .97270 1.4421  92.9 21.4  1.3  78
2018 07 17 10  14 25 18.407   +16 27 50.27  .97272 1.4420  92.9 21.4  1.3  78
2018 07 17 11  14 25 22.236   +16 26 13.99  .97274 1.4419  92.9 21.4  1.3  78
2018 07 17 12  14 25 26.068   +16 24 37.69  .97276 1.4418  92.9 21.4  1.3  78
2018 07 17 13  14 25 29.903   +16 23 01.36  .97278 1.4417  92.9 21.4  1.3  78
2018 07 17 14  14 25 33.741   +16 21 25.00  .97280 1.4416  92.9 21.4  1.4  78
2018 07 17 15  14 25 37.583   +16 19 48.61  .97282 1.4415  92.9 21.4  1.4  78
2018 07 17 16  14 25 41.427   +16 18 12.20  .97284 1.4414  92.8 21.4  1.4  78
2018 07 17 17  14 25 45.275   +16 16 35.76  .97286 1.4413  92.8 21.4  1.4  78